Flag for Iran Weather past 2 weeks in Esfahãn, Iran

Now
36 °F

Clear.


Feels Like: 32 °F
Forecast: 26 / 62 °F
Wind: 5 mph from East

Location: Esfahan

Current Time: Feb 28, 2015 at 10:52:45 PM

Latest Report: Feb 28, 2015 at 10:30 PM


Visibility: 10 mi

Pressure: 30.01 "Hg

Humidity: 30%

Dew point: 7 °F

Location of EsfahãnLocation

Historic Weather in Esfahãn — Graph

°F

Esfahãn temperature yesterday

Maximum temperature yesterday: 48 °F (at 2:00 PM)
Minimum temperature yesterday: 25 °F (at 4:30 AM)
Average temperature yesterday: 38 °F

Past Weeks' High & Low Weather Summary

 TemperatureHumidityPressure
High68 °F (Feb 14, 1:30 PM)100% (Feb 21, 5:00 AM)30.30 "Hg (Feb 21, 5:00 AM)
Low12 °F (Feb 28, 6:30 AM)14% (Feb 14, 1:30 PM)29.53 "Hg (Feb 20, 4:00 PM)
Average42 °F49%29.98 "Hg
* Reported Feb 13 9:30 PM — Feb 28 9:30 PM, Esfahãn, Weather by CustomWeather, © 2015

Note: Actual official high and low records may vary slightly from our data, if they occured in-between our weather recording intervals... More about our weather records

Advertising

Esfahãn weather history for previous 24 hours

 ConditionsComfort  
Time TempWeatherWind HumidityBarometerVisibility
9:30 PM
Sat, Feb 28
41 °FClear.No wind31%30.01 "Hg10 mi
9:00 PM41 °FClear.No wind31%30.01 "Hg10 mi
8:30 PM41 °FClear.5 mph31%30.01 "Hg10 mi
8:00 PM46 °FClear.5 mph23%30.01 "Hg10 mi
7:30 PM48 °FClear.5 mph23%30.01 "Hg10 mi
7:00 PM48 °FClear.7 mph20%30.01 "Hg10 mi
6:30 PM52 °FClear.5 mph19%30.01 "Hg10 mi
6:00 PM52 °FSunny.5 mph16%30.01 "Hg10 mi
5:30 PM55 °FSunny.5 mph14%30.01 "Hg10 mi
5:00 PM55 °FSunny.5 mph14%30.01 "Hg10 mi
4:30 PM57 °FSunny.5 mph14%30.01 "Hg10 mi
4:00 PM57 °FSunny.5 mph14%30.04 "Hg10 mi
3:30 PM55 °FSunny.5 mph15%30.04 "Hg10 mi
3:00 PM55 °FSunny.5 mph15%30.04 "Hg10 mi
2:30 PM54 °FSunny.5 mph18%30.07 "Hg10 mi
2:00 PM54 °FSunny.5 mph21%30.07 "Hg10 mi
1:30 PM52 °FSunny.7 mph24%30.07 "Hg10 mi
1:00 PM52 °FSunny.No wind28%30.09 "Hg10 mi
12:30 PM48 °FSunny.5 mph32%30.12 "Hg10 mi
12:00 PM46 °FSunny.5 mph34%30.15 "Hg10 mi
11:30 AM45 °FSunny.7 mph37%30.15 "Hg10 mi
11:00 AM45 °FSunny.5 mph39%30.18 "Hg10 mi
10:30 AM41 °FSunny.5 mph42%30.18 "Hg10 mi
10:00 AM39 °FSunny.No wind42%30.21 "Hg10 mi
9:30 AM37 °FSunny.No wind48%30.21 "Hg10 mi
9:00 AM34 °FSunny.5 mph51%30.21 "Hg10 mi
8:30 AM32 °FSunny.5 mph55%30.21 "Hg10 mi
8:00 AM28 °FSunny.5 mph64%30.21 "Hg4 mi
7:30 AM23 °FSunny.5 mph68%30.21 "Hg2 mi
7:00 AM16 °FClear.7 mph79%30.21 "Hg4 mi
6:30 AM12 °FClear.5 mph73%30.21 "Hg10 mi
6:00 AM19 °FClear.No wind73%30.21 "Hg10 mi
5:30 AM19 °FClear.No wind73%30.21 "Hg10 mi
5:00 AM21 °FClear.5 mph74%30.18 "Hg10 mi
4:00 AM23 °FClear.No wind68%30.18 "Hg10 mi
3:30 AM25 °FClear.No wind69%30.18 "Hg10 mi
3:00 AM23 °FClear.No wind68%30.18 "Hg10 mi
2:30 AM27 °FClear.No wind64%30.21 "Hg10 mi
2:00 AM27 °FClear.5 mph64%30.21 "Hg10 mi
1:30 AM28 °FClear.No wind64%30.24 "Hg10 mi
1:00 AM28 °FClear.5 mph59%30.24 "Hg10 mi
12:30 AM28 °FClear.5 mph59%30.24 "Hg10 mi
12:00 AM30 °FClear.5 mph55%30.24 "Hg10 mi
11:30 PM
Fri, Feb 27
34 °FClear.9 mph51%30.24 "Hg10 mi
11:00 PM34 °FClear.9 mph51%30.24 "Hg10 mi
10:30 PM34 °FClear.9 mph51%30.27 "Hg10 mi
10:00 PM30 °FClear.7 mph55%30.27 "Hg10 mi
Weather by CustomWeather, © 2015

See weather overviewHow to use our weather pages